COSMOS 1294

Satellite information

Favourite Embed

Satellite Type and Status

PAYLOADIN ORBIT

Key statistics

Satellite COSMOS 1294 at a glance.

Uptime

16103

Days in orbit

Revolutions

≈ 12.6

Per day

Orbit

LEO

Low Earth Orbit

Inclination

74.0

Latest

Satellite identification and parameters

Extended collection of information and parameters for COSMOS 1294.

Object identification

Identified? True

Debris? False

Object name: COSMOS 1294

International designator: 1981-074H

Object number (NORAD): 12643

Object ID (CCSDS): 12643

Country: COMMONWEALTH OF INDEPENDENT STATES (CIS)

Current information (Y/N): Y

RCS size: MEDIUM

Orbital parameters

Period: 114.398 minutes

Inclination: 74.0368 deg

SMA: 7806.181 km

Apoapsis: 1464.448 km

Periapsis: 1391.644 km

RAAN: 359.318 deg

Eccentricy: 0.00466321

Argument of periapsis: 327.9765 deg

Mean anomaly: 146.6921 deg

Mean motion: 12.58765534 rev/day

Mean motion (dot): -0.0000001 rev/day2

B* drag term: 0.000039783039 1/REarth

Two-line elements (TLE)

Creation date: Sept. 7, 2025, 3:09 a.m.

Reference frame: TEME

Reference center: EARTH

Epoch: Sept. 6, 2025, 6:41 p.m. UTC

TLE line 0: 0 COSMOS 1294

TLE line 1: 1 12643U 81074H 25249.77895809 -.00000010 00000-0 39783-4 0 9997

TLE line 2: 2 12643 74.0368 359.3180 0046632 327.9765 146.6921 12.58765534 25737

Live tracking on map

Real-time ground track for satellite COSMOS 1294.

In-orbit conjunctions

A list of the most updated potential collisions computed for object COSMOS 1294.

Target Orbit TCA Probability of collision Miss distance Type
COSMOS 2198 LEO 2024-12-10 13:44:03 0.0006367989 58.0 (m) PAYLOAD

Associated space launch

Military communications satellites

COSMOS 1294 was lifted into orbit during the mission ‘Kosmos-3M | Strela-1M 217-224’, on board a Kosmos-3M space rocket.

The launch took place on Aug. 6, 1981, 11:49 a.m. from 132/2.

For more information about the launch, click the button.

Launch to space Kosmos-3M | Strela-1M 217-224
Kosmos-3M | Strela-1M 217-224

Agency: N/A

Status: Launch Successful

Launch date: Aug. 6, 1981, 11:49 a.m. UTC

Rocket: Kosmos-3M

Launch pad: 132/2

Location: Plesetsk Cosmodrome, Russian Federation

...

Latest news about this satellite

There are no fresh news available about this satellite. Check back as we update our databases every day.


Newsletter sign-up

Weekly statistics, charts and insights to help you stay on top of the space industry.